Location: Newark
(43.9494°N, 6.8108°E)
Time: 05:14:47
(UTC+00:00)

A-11 Canister half - Pass Details

Date: 24 October 2019
Orbit: 1514 x 1686 km, 47.2° (Epoch: 11 November)

Event Time Altitude Azimuth Distance (km) Brightness Sun altitude
Rises 08:32:13 0° 290° (WNW) 4,759 11.1 22.9°
Reaches altitude 10° 08:36:31 10° 274° (W) 3,741 10.7 23.5°
Maximum altitude 08:42:22 19° 234° (SW) 3,080 10.7 24.2°
Drops below altitude 10° 08:48:09 10° 195° (SSW) 3,674 11.6 24.9°
Sets 08:52:22 0° 178° (S) 4,642 12.3 25.4°
